Regional Weather Roundup
Issued by NWS

Home | Current Version | Previous Version | Graphics & Text | Print | Product List | Glossary On
Versions: 1 2 3 4 5 6 7 8 9 10 11 12 13 14 15 16 17 18 19 20 21 22 23 24 25 26 27 28 29 30 31 32 33 34 35 36 37 38 39 40 41 42 43 44 45 46 47 48 49 50
000
ASUS43 KMKX 101900
RWRWI

WISCONSIN REGIONAL WEATHER ROUNDUP
NATIONAL WEATHER SERVICE MILWAUKEE/SULLIVAN WI
100 PM CST SAT DEC 10 2016

NOTE: "FAIR" INDICATES FEW OR NO CLOUDS BELOW 12,000 FEET WITH NO
SIGNIFICANT WEATHER AND/OR OBSTRUCTIONS TO VISIBILITY.

WIZ001-002-006>008-014>016-023>028-102000-
NORTHWEST WISCONSIN

CITY           SKY/WX    TMP DP  RH WIND       PRES   REMARKS
SUPERIOR ARPT  CLOUDY     9  -2  62 NW3       30.41F
ASHLAND        PTSUNNY   10   0  63 S8        30.39F WCI  -2
HAYWARD        MOSUNNY   11  -1  58 CALM      30.34F
SIREN          CLOUDY    12   1  63 SE3       30.37F
CUMBERLAND     SUNNY     12   1  62 CALM      30.35F
RICE LAKE      MOSUNNY   12   2  64 SW6       30.37F WCI   3
CHETEK         PTSUNNY   12   2  64 CALM      30.37F
LADYSMITH      CLOUDY    12   2  63 CALM      30.36F
EAU CLAIRE     NOT AVBL
MENOMONIE      MOSUNNY   13   4  66 CALM      30.38F
NEW RICHMOND   CLOUDY    11   1  64 SE3       30.36F
OSCEOLA        CLOUDY    12   3  66 SE6       30.41F WCI   3
$$

WIZ003>005-009-010-017-018-102000-
NORTH CENTRAL WISCONSIN

CITY           SKY/WX    TMP DP  RH WIND       PRES   REMARKS
MANITOWISH WTR SUNNY      6  -3  66 CALM      30.31F
ARBOR VITAE    MOSUNNY   11   1  64 CALM      30.30F
WOODRUFF       MOSUNNY   11   1  64 CALM      30.30F
RHINELANDER    SUNNY     11  -1  58 CALM      30.30F
EAGLE RIVER    SUNNY      9  -3  56 N8        30.30F WCI  -3
LAND O LAKES   PTSUNNY   11  -1  60 NW6       30.29F WCI   1
PHILLIPS       CLOUDY     8  -2  62 CALM      30.31F
TOMAHAWK       SUNNY     10  -2  56 CALM      30.32F
MEDFORD        CLOUDY    10  -1  61 NE3       30.33F
MERRILL        MOSUNNY   11  -1  59 W3        30.35F
$$

WIZ029-030-035-036-043>047-102000-
CENTRAL WISCONSIN

CITY           SKY/WX    TMP DP  RH WIND       PRES   REMARKS
WAUSAU         SUNNY     12   1  61 N5        30.34F WCI   4
MOSINEE        PTSUNNY   12   3  67 W6        30.36F WCI   3
MARSHFIELD     CLOUDY    11   1  64 W5        30.34F WCI   3
STEVENS POINT  MOSUNNY   13   1  59 W3        30.37F
WAUPACA        CLOUDY    20   4  49 CALM      30.39F
WAUTOMA        CLOUDY    16   6  65 W8        30.39F WCI   5
WISC RAPIDS    PTSUNNY   15   5  64 NW6       30.38F WCI   6
CAMP DOUGLAS   NOT AVBL
$$

WIZ011>013-019>022-031-037>040-048>050-102000-
NORTHEAST WISCONSIN

CITY           SKY/WX    TMP DP  RH WIND       PRES   REMARKS
ANTIGO         SUNNY     10  -1  60 W7        30.32F WCI  -1
SHAWANO        MOSUNNY   19   4  51 NW6       30.39F WCI  11
OCONTO         SUNNY     17   3  55 W7        30.39F WCI   8
STURGEON BAY   PTSUNNY   17   5  59 W10       30.38F WCI   5
GREEN BAY      PTSUNNY   22   8  55 W10       30.39F WCI  11
MANITOWOC      NOT AVBL
APPLETON       PTSUNNY   18   1  49 W7        30.37F WCI   8
CLINTONVILLE   CLOUDY    18   5  57 NW9       30.39S WCI   6
OSHKOSH        MOSUNNY   17   6  62 W7        30.39F WCI   8
$$

WIZ032>034-041-042-053>061-102000-
SOUTHWEST WISCONSIN

CITY           SKY/WX    TMP DP  RH WIND       PRES   REMARKS
LA CROSSE      CLOUDY    16   6  65 CALM      30.40F
SPARTA         CLOUDY    15   7  69 CALM      30.39F
VIROQUA        MOSUNNY   13   6  73 CALM      30.36F
BOSCOBEL       CLOUDY    21  10  62 CALM      30.41F
PRAIRIE DU CHI LGT SNOW  18  11  73 CALM      30.41F
PLATTEVILLE    CLOUDY    19  16  86 SE5       30.39F WCI  13
$$

WIZ056-057-062-063-064-067-068-102000-
SOUTH CENTRAL WISCONSIN

CITY           SKY/WX    TMP DP  RH WIND       PRES   REMARKS
REEDSBURG      PTSUNNY   16   6  65 SW3       30.39F
BARABOO/DELLS  MOSUNNY   17   6  62 CALM      30.39F
LONE ROCK      NOT AVBL
MINERAL POINT  FLURRIES  21  14  73 CALM      30.38F
MADISON        CLOUDY    19  10  68 SW5       30.40F WCI  12
MIDDLETON      CLOUDY    21  13  69 SE3       30.40F
WATERTOWN      PTSUNNY   19   8  63 W7        30.41F WCI  10
MONROE         MOSUNNY   21  14  73 W3        30.40F
JANESVILLE     CLOUDY    21  12  68 W5        30.41F WCI  15
$$

WIZ051-052-058>065-066-070>072-102000-
SOUTHEAST WISCONSIN

CITY           SKY/WX    TMP DP  RH WIND       PRES   REMARKS
MILWAUKEE      PTSUNNY   24  10  55 W8        30.42F WCI  15
WAUKESHA       MOSUNNY   18   9  68 W10       30.42F WCI   6
MILWAUKEE/TIMM SUNNY     21   7  53 W12       30.42F WCI   9
RACINE         MOSUNNY   22  10  60 W12       30.44F WCI  10
BURLINGTON     MOSUNNY   26  18  71 W7        30.43F WCI  19
KENOSHA        MOSUNNY   23  13  65 W7        30.42F WCI  15
FOND DU LAC    MOSUNNY   18   6  59 W9        30.40F WCI   7
SHEBOYGAN      SUNNY     20   7  57 W12       30.39F WCI   8
WEST BEND      PTSUNNY   19   9  63 W10       30.40F WCI   8
JUNEAU         CLOUDY    16   8  70 SW8       30.42F WCI   5
$$

LSZ147-162-102000-
LAKE SUPERIOR

STATION/POSITION TIME  TEMP    WIND        PRES    WAVE
                       AIR SEA DIR/SP/G            HT/PER
                 (UTC) (F)     (DEG/KT/KT) (MB)    (FT/S)
DEVILS ISLAND    1800    9     250/  8/ 11 1031.4F
PORT WING        1840   10     180/  5/  6 1029.5F
SAXON HARBOR     1840    9     180/  4/  7 1029.1F
$$

LMZ867-665-643>646-102000-
LAKE MICHIGAN

STATION/POSITION TIME  TEMP    WIND        PRES    WAVE
                       AIR SEA DIR/SP/G            HT/PER
                 (UTC) (F)     (DEG/KT/KT) (MB)    (FT/S)
CHAMBERS ISLAND  1840   21     270/  7/ 13 1027.8F
NORTHPORT PIER   1840   20     290/ 11/ 15 1027.8F
SISTER BAY       1750   24     310/ 15/ 19   N/A
ALGOMA LAKESHORE 1721          320/ 10/ 14   N/A
KEWAUNEE LAKESHO 1830   18     330/  7/ 12 1028.6F
SHEBOYGAN LAKESH 1800   18     280/ 12/ 14 1030.8F
PORT WASHINGTON  1830   21     280/  8/ 12 1030.8F
KENOSHA   LAKESH 1800   22     260/ 12/ 15 1030.8
$$

TC  - TEMPERATURE IN CELSIUS
VSB - VISIBILITY IN STATUTE MILES
WCI - WIND CHILL INDEX
HX  - HEAT INDEX





USA.gov is the U.S. government's official web portal to all federal, state and local government web resources and services.